NOAA 16 DEB, 42379

Orbit data source: Space-Track

NOAA 16 DEB, 42379 is space debris in SSO originally from a launch on Thu, 21 Sep 2000 UTC launched from the Air Force Western Test Range (AFWTR). Debris objects in space refer to the collection of defunct objects orbiting the Earth. Examples of debris include non-operational satellites, rocket bodies, and fragments generated from explosions, collisions, or faulty payload assembly.

Loading next visibility...
Identifier
42379, 2000-055RX
Orbit
SSO
Country
Flag of USUS
Related business
Manufacturer
Unknown
Mission
Spacecraft
Bus & Motor
Unknown
Mass
Unknown
Launch date (UTC)
2000-09-21 (26 years ago)
Launch vehicle
Unknown
Launch site
Air Force Western Test Range (AFWTR)
Object type
Payload
Rocket body
Debris
Shape & HBR
Unknown shape, 0.1 m
Radar Cross Section
Small (<0.1 m²)

Expand to show TLE details & history
Last TLE update: 2 days ago

TLE from 2 days ago
0 NOAA 16 DEB
1 42379U 00055RX  26171.05032822  .00018735  00000-0  23847-2 0  9994
2 42379  98.9218  25.9783 0022123  80.7201 279.6509 14.81451949536666
Epoch: 2026-06-20T01:12Z
TLE epoch observation values (Epoch: 2026-06-20T01:12:28.358Z)
Latitude
-0.00002°
Longitude
99.58963°
Altitude
625.171 km
Speed
7.547 km/s
True Right ascension
01h 43m 54s
True Declination
0° 00' 00"
Sunlit
Object was in daylight at epoch
Visualization orbit readout
Latitude
Unknown
Longitude
Unknown
Altitude
Unknown
Speed
Unknown
Apparent Right ascension
Unknown
Apparent Declination
Unknown
Sunlit
N/A
Visualization observer readout
Local Sidereal Time
21:38:21
Azimuth
Unknown
Elevation
Unknown
Doppler factor
Unknown
Orbital elements
Apogee altitude
637.318 km
Perigee altitude
606.346 km
Semi-major axis
6,999.969 km
Eccentricity
0.00221
Inclination
98.9218°
RAAN
25.9783°
Arg. of periapsis
80.7201°
True anomaly
279.40086°
Mean anomaly
279.6509°
Eccentric anomaly
279.52589°
Mean motion
3.70594 °/min
Orbital period
97.14 mins
BSTAR
0.0023847
Loading maneuver chart data...
Computing Atmospheric mass density...
Loading historical data...
Loading historical data...
Loading historical data...
Loading historical data...
Loading historical data...
Loading historical data...
Loading historical data...

Documentation

Showing up to 5 results
|